{"data":{"norad_id":51718,"intl_designator":"2022-016E","name":"STARLINK-3546","alt_names":[],"object_type":"PAYLOAD","status":"ACTIVE","operator":null,"country":"US","launch_date":"2022-02-21","launch_site_code":"AFETR","launch_vehicle":null,"mission":null,"orbit_class":"UNKNOWN","rcs_meters":null,"size_class":null,"mass_kg":null,"dimensions":null,"purposes":["comms"],"wikipedia_slug":null,"has_3d_model":false,"image_url":null,"decayed_at":null,"tle_current":{"epoch":"2026-09-19T22:43:57.571104Z","epoch_age_seconds":96225,"freshness":"FRESH","line1":"1 51718U 22016E   26262.94719411  .00018130  00000+0  75208-3 0  9994","line2":"2 51718  53.1809 159.5399 0004845 127.3829 232.7611 15.23935877254120","mean_motion":15.23935877,"eccentricity":0.0004845,"inclination_deg":53.1809,"raan_deg":159.5399,"arg_perigee_deg":127.3829,"mean_anomaly_deg":232.7611,"bstar":0.00075208,"rev_number":25412,"period_min":94.492164777613,"perigee_km":490.65310765784,"apogee_km":497.31219159833,"semimajor_km":6872.1196496281,"source":"CELESTRAK","updated_at":"2026-09-20T09:00:39.597766Z"}}}